Address 0x12603cb9af134ae6064ebea1107e4520280035a6 28

 

Overview

Balance:
0.001602051783660196 ETH

ETH Value:
$4.77 (@ $2,979.47/ETH)

Token:
Txn Hash Method
Block
From
To
Value [Txn Fee]
0xeff3961fee3e5704ba971018923f228126295c433acc9c3afc8b43083fe7e32cWithdraw1829988212024-02-21 12:17:223 days 7 hrs ago0x12603cb9af134ae6064ebea1107e4520280035a6OUT Stargate Finance: LP Staking Time0 ETH0.00009552 0.1
0x70e968ad5921b3ebcd977c49cfe8d4e656e7a0cf73c38c7a382ae922634d5d79Start1818019942024-02-17 22:15:546 days 21 hrs ago0x12603cb9af134ae6064ebea1107e4520280035a6OUT 0x48fa7528bfd6164ddf09df0ed22451cf59c841300 ETH0.00013422 0.1
0x9accda17c98eea1386dea2f0418e566bfd29d96eacad46ecb35e95005fe42e58Approve1818019232024-02-17 22:15:366 days 21 hrs ago0x12603cb9af134ae6064ebea1107e4520280035a6OUT Wrapped stETH: wstETH Token0 ETH0.00005089 0.1
0x9a58215306090051fe39832609ce5f029bb8476da337838004482bf8ceebd167Deposit1813438682024-02-16 13:11:468 days 6 hrs ago0x12603cb9af134ae6064ebea1107e4520280035a6OUT Stargate Finance: LP Staking Time0 ETH0.00007417 0.1
0x9414bb181e5456fd06eb260cce13d2fdd0a7340c2a91d5f07375ea1d39593348Approve1813438182024-02-16 13:11:348 days 6 hrs ago0x12603cb9af134ae6064ebea1107e4520280035a6OUT Stargate Finance: S*USDC Token0 ETH0.00006746 0.1
0xca457940447da969ce1d608f8850570e81bb94bd45dcbc8d6e2b3bc6ed41b9d6Withdraw1813437212024-02-16 13:11:098 days 6 hrs ago0x12603cb9af134ae6064ebea1107e4520280035a6OUT Stargate Finance: LP Staking0 ETH0.00007349 0.1
0xbcd8f7366a7d71183ff18cfb1efecc9d604c4bcc651849e4ff90942901590d05Start Bridge Tok...1759077712024-01-31 2:05:5524 days 17 hrs ago0x12603cb9af134ae6064ebea1107e4520280035a6OUT LI.FI: LiFi Diamond0.001 ETH0.00013014 0.1
0xcb1149a4b4560d0d5095752e356a15cafad580206ab81d7b04d26fbc1c263fcbEnter Staking1758649402024-01-30 23:02:3124 days 20 hrs ago0x12603cb9af134ae6064ebea1107e4520280035a6OUT 0x333ce751b413ca71725d7cdef3cf50c8351e33330 ETH0.00006762 0.1
0x4a9d72790ad5a59c5d9eaf3af95d8aded1841e4b7946922e416010fe643a94aeUnstake1753181402024-01-29 7:56:4826 days 11 hrs ago0x12603cb9af134ae6064ebea1107e4520280035a6OUT 0x333ce751b413ca71725d7cdef3cf50c8351e33330 ETH0.00003209 0.1
0x4248cba9d9613708c9a514bcb522f694fb630620d716fe690c8bfe88f9e76cc10x646174611748703162024-01-28 0:27:5627 days 18 hrs ago0x12603cb9af134ae6064ebea1107e4520280035a6OUT0x0a88bc5c32b684d467b43c06d9e0899efeaf59df0.000230000000009 ETH0.0000229 0.1
0x1343a75fbec88118735e87d8f7347863ac84763971d884444607b8d81456d317Stake1676098072024-01-06 7:41:1949 days 11 hrs ago0x12603cb9af134ae6064ebea1107e4520280035a6OUT 0x2cfa72e7f58dc82b990529450ffa83791db7d8e20 ETH0.0000549 0.1
0x2fe619f6211fa892710531528737f796731425347368c7ad4792286af2787119Deposit1662496292024-01-02 8:04:4353 days 11 hrs ago0x12603cb9af134ae6064ebea1107e4520280035a6OUT 0xc0f8c29e3a9a7650a3f642e467d70087819926d60 ETH0.00004757 0.1
0x74dc40617cb8c091fd9d0833a04b31e3d1dc111e5a5d6877986efc271f27c6b3Approve1662494942024-01-02 8:04:0953 days 11 hrs ago0x12603cb9af134ae6064ebea1107e4520280035a6OUT 0x7f3f2a499c00c2d7018300f99a232896fd295bb10 ETH0.00003443 0.1
0x71bbd5dfc7ea28d26365c6481c5756495a3cf7998f9afa8363311bc5dfb0a3eeWithdraw1662493432024-01-02 8:03:3153 days 11 hrs ago0x12603cb9af134ae6064ebea1107e4520280035a6OUT 0xc0f8c29e3a9a7650a3f642e467d70087819926d60 ETH0.00004825 0.1
0xaaf13060b93217390acc949d9074247bfb4ecfb5dd3d455b1c7b96d73aa67dacStake1662484092024-01-02 7:59:3853 days 11 hrs ago0x12603cb9af134ae6064ebea1107e4520280035a6OUT 0x2cfa72e7f58dc82b990529450ffa83791db7d8e20 ETH0.0000584 0.1
0xc9152916439e10a5085fa68c6d30279983bfbfd86e4fec880730d995b3625470Approve1662483022024-01-02 7:59:1153 days 11 hrs ago0x12603cb9af134ae6064ebea1107e4520280035a6OUT Woo: WOO Token0 ETH0.00004425 0.1
0xdecb8de1b45ecbcaa8e67292aebf999fdb9c05d69ee7ce3eff0f5b60db4c6508Claim Rewards1662481272024-01-02 7:58:2753 days 11 hrs ago0x12603cb9af134ae6064ebea1107e4520280035a6OUT 0xa9e245c1fa7e17263cc7c896488a3da8072924fb0 ETH0.00005045 0.1
0x3633520e540095231c29cf11a7ba7d51a277fa06b6ee282c5f8c8d8f0f5eb97dExecute1628757712023-12-23 8:51:4263 days 10 hrs ago0x12603cb9af134ae6064ebea1107e4520280035a6OUT 0x8419f704cd6520e2c3ef477ef9bfa3159ea1aca70.000021874179718 ETH0.0001789 0.1
0x617f5cdfdd7cbfe69ac84a6f0cd883d6c1481ee157c02ed470945ce4f71b0c7eExecute1628751062023-12-23 8:48:5463 days 10 hrs ago0x12603cb9af134ae6064ebea1107e4520280035a6OUT 0x8419f704cd6520e2c3ef477ef9bfa3159ea1aca70.000131245078309 ETH0.0001794 0.1
0x847219bd50b231aa555832c02cd5772a08292a0da478705c01b05bc729c26323Swap1586797042023-12-10 9:11:2276 days 10 hrs ago0x12603cb9af134ae6064ebea1107e4520280035a6OUT 0x9aed3a8896a85fe9a8cac52c9b402d092b629a300 ETH0.00012427 0.1
0x42eaac78b5d80c20ede0c1949ad995080eb9545ba47692c624292dca329680b5Start Via Rubic1586643812023-12-10 8:05:1076 days 11 hrs ago0x12603cb9af134ae6064ebea1107e4520280035a6OUT 0x3335733c454805df6a77f825f266e136fb4a33330.00094460562715 ETH0.00045216 0.1
0x76f303da7e97f548b94abceed7cb24daa20f04366bdcc7983291390970876086Approve1583592632023-12-09 9:37:1877 days 9 hrs ago0x12603cb9af134ae6064ebea1107e4520280035a6OUT Arbitrum Foundation: ARB Token0 ETH0.00009298 0.1
0x934ad503d9dc21e757cd69999368fe0839d0c995877fa496196e3c5f6871c7bdClaim1579981532023-12-08 6:50:3378 days 12 hrs ago0x12603cb9af134ae6064ebea1107e4520280035a6OUT Galxe: NFT Space Station0 ETH0.00015247 0.1
0xaeb5d79a53b76252ce107700ff3da7a99b7c7562e66ac2caf19daaf8f1d7ff61Claim1484732372023-11-08 20:58:52107 days 22 hrs ago0x12603cb9af134ae6064ebea1107e4520280035a6OUT Galxe: NFT Space Station0 ETH0.0002867 0.1
0xa957fd8548fe0e86588d309e3e29a053ed0ce3cc4daab8fe0cd176446e3198f1Claim Batch1472937892023-11-05 6:36:42111 days 12 hrs ago0x12603cb9af134ae6064ebea1107e4520280035a6OUT Galxe: NFT Space Station0 ETH0.00010597 0.1
[ Download CSV Export 
Latest 24 internal transactions
Parent Txn Hash Block From To Value
0x4a9d72790ad5a59c5d9eaf3af95d8aded1841e4b7946922e416010fe643a94ae1753181402024-01-29 7:56:4826 days 11 hrs ago 0x333ce751b413ca71725d7cdef3cf50c8351e33330x12603cb9af134ae6064ebea1107e4520280035a60.001157486764716265 ETH
0x847219bd50b231aa555832c02cd5772a08292a0da478705c01b05bc729c263231586797042023-12-10 9:11:2276 days 10 hrs ago 0x9aed3a8896a85fe9a8cac52c9b402d092b629a300x12603cb9af134ae6064ebea1107e4520280035a60.002607451580092225 ETH
0x88ca00ce84c4a76c91309b84ee6035f62c6bfcd62b3856e1ec81088778035bf51440235212023-10-26 1:01:05121 days 18 hrs ago 0x333ce751b413ca71725d7cdef3cf50c8351e33330x12603cb9af134ae6064ebea1107e4520280035a60.000930943071134112 ETH
0x7d77203c0714d6472f2b450a4db162bebe1e514aa52928eaea9a7e4ad54ef16a1420549102023-10-19 16:29:00128 days 2 hrs ago 0x7a08b29a7ad4a19a5eca0c82f5f082872488d1350x12603cb9af134ae6064ebea1107e4520280035a60.00099 ETH
0x03c5b99ae6922b084b67757082a22e5b13602258c8a7af486f63d51ff99c2dfc1365120542023-10-01 17:29:32146 days 1 hr ago 1inch v5: Aggregation Router0x12603cb9af134ae6064ebea1107e4520280035a60.004493823562809742 ETH
0xeb28f6eb1b9ac960f8b9b0952c63891b1bb124359dec5b8aa1809c92bf072e891272616162023-09-02 6:51:00175 days 12 hrs ago 0xe05dd51e4eb5636f4f0e8e7fbe82ea31a2ecef160x12603cb9af134ae6064ebea1107e4520280035a60.000544283156797336 ETH
0x9d68062e9785e93c8177ac0de669e5586d42a2a1e5883077c48adff4a7646d841146798522023-07-25 4:19:39214 days 15 hrs ago 0x6aa981bff95edfea36bdae98c26b274ffcafe8d30x12603cb9af134ae6064ebea1107e4520280035a60.003238354614272291 ETH
0x4cc88ce0d5e60814766af0f187716114824ee79892c251a5ddc3e71e3cefe6061146798052023-07-25 4:19:27214 days 15 hrs ago 0x33383265290421c704c6b09f4bf27ce574dc42030x12603cb9af134ae6064ebea1107e4520280035a60.000526 ETH
0x56e0c034bb3d620fb3d9ae46e5a70172eb9922a5402a659b1a0210b47b036ebb1146759912023-07-25 4:02:35214 days 15 hrs ago 1inch v5: Aggregation Router0x12603cb9af134ae6064ebea1107e4520280035a60.000498262399184381 ETH
0x583fd0c3cbd790d94a6bf4b60e8a8d6a7fd37423a0cee0b65359b8683fdeb2441063052712023-06-30 2:06:29239 days 17 hrs ago Layer Zero: Ultra Light Node v20x12603cb9af134ae6064ebea1107e4520280035a60.00016797576695189 ETH
0xa3a3675b44aeda8454ac8ed37bdb3b251995c8864ce5f9c92a4e437c2aef1fae894394952023-05-11 1:38:44289 days 17 hrs ago 0x4ab421de52b3112d02442b040dd3dc73e8af63b50x12603cb9af134ae6064ebea1107e4520280035a60.0019988 ETH
0x5389dbfb924db9a128c3f9757d4fa728809a7dc1e9d820468250614d36f865c0857237942023-04-30 4:07:27300 days 15 hrs ago 0x9aed3a8896a85fe9a8cac52c9b402d092b629a300x12603cb9af134ae6064ebea1107e4520280035a60.003555514755658769 ETH
0xbc004f213edb84a155452caa359f16b7875ec6e00bfb9be32ab1b0131ab79917782423982023-04-08 7:25:51322 days 11 hrs ago 0xd7f1dd5d49206349cae8b585fcb0ce3d96f1696f0x12603cb9af134ae6064ebea1107e4520280035a60.006395334828944344 ETH
0xec395a0bd3e336fc5c88a4ad969dc9be058bec9e8e16b972e77f453569148512781891132023-04-08 3:41:41322 days 15 hrs ago Rhino.fi: Bridge0x12603cb9af134ae6064ebea1107e4520280035a60.0005 ETH
0x1bff50b0b30bb19aaa4d8f5a76963db36992b49641b63bcbfaaae3595d6f2b29575384912023-02-02 22:16:28386 days 21 hrs ago 0x9de8733589921cf203e703d9e4330e83162aec330x12603cb9af134ae6064ebea1107e4520280035a60.00001992 ETH
0x1bff50b0b30bb19aaa4d8f5a76963db36992b49641b63bcbfaaae3595d6f2b29575384912023-02-02 22:16:28386 days 21 hrs ago 0x9de8733589921cf203e703d9e4330e83162aec330x12603cb9af134ae6064ebea1107e4520280035a60.000000005065013974 ETH
0x4839eec1acb3633c052db60d95b452016d2bfdbb7f819716730d9441ec153def486558842022-12-25 3:54:57426 days 15 hrs ago SushiSwap: Router0x12603cb9af134ae6064ebea1107e4520280035a60.000082736922061027 ETH
0xe26ccdb2df53bd5b570edb42063a400c4939773e7db4bf472b434c9857f52095486554622022-12-25 3:51:52426 days 15 hrs ago SushiSwap: SushiXSwap0x12603cb9af134ae6064ebea1107e4520280035a60.000081803826705045 ETH
0x583c37925988892bebbc51da530abf4c37e9f5eb2b9e152a0dff35b848f12b2f482025952022-12-23 6:15:14428 days 13 hrs ago Layer Zero: Ultra Light Node v20x12603cb9af134ae6064ebea1107e4520280035a60.000003045052483915 ETH
0x698256a27631daa5e99e708fcf13be9b25a04c7cfd6bed582e71d4739341048f467459392022-12-16 23:14:44434 days 20 hrs ago SushiSwap: Router0x12603cb9af134ae6064ebea1107e4520280035a60.000000000000002342 ETH
0xfa448c0f39bc3345028f14f2adbc3e0439d6685aa562d485aa36f09652b9288d404306952022-11-23 3:32:36458 days 15 hrs ago SushiSwap: Router0x12603cb9af134ae6064ebea1107e4520280035a60.000210184769521312 ETH
0x8c5911bf0fd74a55021f478ebf78438cafd798bd3d807a88e5bcba0ed3ca8d91400390192022-11-21 19:38:34459 days 23 hrs ago 0x63850f9dccfc839534d5dc69333403c90c10c6fd0x12603cb9af134ae6064ebea1107e4520280035a60.001188399727630983 ETH
0x23680c6e18c451523db08f29a6913406387a7bc95b32b1670f6841bb55477011398132042022-11-21 2:56:54460 days 16 hrs ago Across Protocol: Arbitrum Spoke Pool V20x12603cb9af134ae6064ebea1107e4520280035a60.001945108830341759 ETH
0xd4035746923d2496e4390e686a9bbb2ba755c5c023ed95dee0b5ee0101742146154622992022-06-23 4:14:57611 days 15 hrs ago Hop Protocol: ETH Wrapper0x12603cb9af134ae6064ebea1107e4520280035a60.00498838734493525 ETH
[ Download CSV Export 
Loading

Contract Name:
0 ETH

Compiler Version
0

Optimization Enabled:
0 ETH

Other Settings:
-NA-
Block Transaction Gas Used Reward
Age Block Fee Address BC Fee Address Voting Power Jailed Incoming
Block Uncle Number Difficulty Gas Used Reward
Loading
Make sure to use the "Vote Down" button for any spammy posts, and the "Vote Up" for interesting conversations.